This is the latest recevied weather packets stored in our database for station/object N4AN. If no packets are shown the sender has not sent any weather packets the latest 10 day(s).
| Time | Temp. | Humidity | Pressure | Rain* | Wind** | Luminosity | Snow |
|---|---|---|---|---|---|---|---|
| 1788020183 | 27.78° C | 84% | 1012.4 hPa | 0 mm | - | - | - |
| 1788019883 | 27.22° C | 85% | 1012.4 hPa | 0 mm | - | - | - |
| 1788019583 | 26.67° C | 85% | 1012.6 hPa | 1.27 mm | - | - | - |
| 1788019282 | 26.67° C | 84% | 1012.7 hPa | 2.03 mm | - | - | - |
| 1788018982 | 26.67° C | 84% | 1012.8 hPa | 2.29 mm | - | - | - |
| 1788018682 | 27.22° C | 84% | 1012.6 hPa | 0 mm | - | - | - |
| 1788018381 | 27.22° C | 84% | 1012.5 hPa | 0 mm | - | - | - |
| 1788018081 | 27.78° C | 83% | 1012.4 hPa | 0 mm | - | - | - |
| 1788017774 | 27.22° C | 85% | 1012.4 hPa | 0 mm | - | - | - |
| 1788017474 | 26.67° C | 84% | 1012.5 hPa | 0 mm | - | - | - |
| 1788017174 | 26.67° C | 84% | 1012.7 hPa | 0 mm | - | - | - |
| 1788016874 | 27.22° C | 83% | 1012.8 hPa | 0 mm | - | - | - |
| 1788016573 | 27.22° C | 82% | 1012.6 hPa | 0 mm | - | - | - |
| 1788016270 | 27.22° C | 82% | 1012.3 hPa | 0 mm | - | - | - |
| 1788015669 | 27.78° C | 80% | 1012.4 hPa | 0 mm | - | - | - |
| 1788015369 | 28.33° C | 79% | 1012.4 hPa | 0 mm | - | - | - |
| 1788014766 | 27.22° C | 80% | 1012.5 hPa | 0 mm | - | - | - |
| 1788014466 | 27.78° C | 80% | 1012.6 hPa | 0 mm | - | - | - |
| 1788014165 | 27.78° C | 80% | 1012.8 hPa | 0 mm | - | - | - |
| 1788013865 | 27.78° C | 81% | 1012.5 hPa | 0 mm | - | - | - |
| 1788013565 | 27.78° C | 83% | 1012.4 hPa | 0 mm | - | - | - |
| 1788013265 | 26.11° C | 85% | 1012.6 hPa | 0 mm | - | - | - |
| 1788012964 | 26.11° C | 85% | 1012.8 hPa | 0 mm | - | - | - |
| 1788012664 | 26.11° C | 85% | 1012.6 hPa | 0 mm | - | - | - |
| 1788012364 | 26.11° C | 85% | 1012.6 hPa | 0 mm | - | - | - |
* Rain latest hour (hover to see other rain measurements)
** Current wind speed in m/s (hover to see current wind gust speed)